This is the latest recevied weather packets stored in our database for station/object K1LVA. If no packets are shown the sender has not sent any weather packets the latest 10 day(s).
| Time | Temp. | Humidity | Pressure | Rain* | Wind** | Luminosity | Snow |
|---|---|---|---|---|---|---|---|
| 1777746279 | 15° C | 98% | 1011.9 hPa | 0 mm | - | 72 W/m² | - |
| 1777745976 | 15.56° C | 99% | 1011.8 hPa | 0 mm | - | 244 W/m² | - |
| 1777745674 | 15.56° C | 99% | 1011.7 hPa | 0 mm | - | 269 W/m² | - |
| 1777745372 | 15.56° C | 99% | 1011.7 hPa | 0 mm | - | 290 W/m² | - |
| 1777745069 | 15.56° C | 99% | 1011.6 hPa | 0 mm | - | 308 W/m² | - |
| 1777744765 | 15.56° C | 99% | 1011.6 hPa | 0 mm | - | 275 W/m² | - |
| 1777744460 | 15.56° C | 99% | 1011.4 hPa | 0 mm | - | 239 W/m² | - |
| 1777744156 | 15.56° C | 99% | 1011.5 hPa | 0 mm | - | 221 W/m² | - |
| 1777743853 | 15.56° C | 99% | 1011.7 hPa | 0 mm | - | 226 W/m² | - |
| 1777743550 | 15.56° C | 99% | 1011.5 hPa | 0 mm | - | 377 W/m² | - |
| 1777743247 | 15° C | 99% | 1011.7 hPa | 0 mm | - | 335 W/m² | - |
| 1777742946 | 15° C | 99% | 1011.8 hPa | 1.27 mm | - | 273 W/m² | - |
| 1777742642 | 14.44° C | 99% | 1011.8 hPa | 4.32 mm | - | 138 W/m² | - |
| 1777742338 | 15° C | 99% | 1011.8 hPa | 3.05 mm | - | 32 W/m² | - |
| 1777742034 | 15° C | 99% | 1011.8 hPa | 0 mm | - | 28 W/m² | - |
| 1777741732 | 15° C | 99% | 1011.9 hPa | 0 mm | - | 77 W/m² | - |
| 1777741428 | 15° C | 99% | 1012 hPa | 0 mm | - | 97 W/m² | - |
| 1777741124 | 15° C | 99% | 1011.8 hPa | 0 mm | - | 192 W/m² | - |
| 1777740821 | 15° C | 99% | 1011.7 hPa | 0 mm | - | 243 W/m² | - |
| 1777740518 | 15° C | 99% | 1012.1 hPa | 1.78 mm | - | 184 W/m² | - |
| 1777740215 | 14.44° C | 99% | 1012.3 hPa | 1.78 mm | - | 167 W/m² | - |
| 1777739911 | 14.44° C | 99% | 1012.3 hPa | 0 mm | - | 193 W/m² | - |
| 1777739608 | 14.44° C | 99% | 1012.1 hPa | 1.27 mm | - | 197 W/m² | - |
| 1777739306 | 14.44° C | 99% | 1012.3 hPa | 1.27 mm | - | 97 W/m² | - |
| 1777739002 | 13.89° C | 99% | 1012.3 hPa | 0 mm | - | 81 W/m² | - |
* Rain latest hour (hover to see other rain measurements)
** Current wind speed in m/s (hover to see current wind gust speed)